• Currently

    Reported at Don Muang
    1:30 AM GMT+7 MON AUG 21 2017
  • 82°F28°C
  • Partly Cloudy
    Partly Cloudy
  • Feels Like:88°F31°CDew Point:73°F23°CHumidity:74% Winds:SSW 9 mph 14 kph
    Pressure:29.71 in1006 hPaVisibility:6.21 miles10000.00 meters
Time Weather Temp Dew Point
Humidity Winds Visibility Pressure Precipitation
1 hr 24 hr
Sunday, August 20
22:30 22:30 Partly Cloudy Partly Cloudy 84°F29°C 79°F26°C 84% S 6 mphS 9 kph 30.0 miles48.3 km 29.74 in1007 hPa -- --
22:00 22:00 Partly Cloudy Partly Cloudy 84°F29°C 79°F26°C 84% SSE 3 mphSSE 6 kph 30.0 miles48.3 km 29.74 in1007 hPa -- --
21:30 21:30 Partly Cloudy Partly Cloudy 84°F29°C 79°F26°C 84% SSE 5 mphSSE 7 kph 30.0 miles48.3 km 29.74 in1007 hPa -- --
21:00 21:00 Partly Cloudy Partly Cloudy 84°F29°C 79°F26°C 84% CalmCalm 30.0 miles48.3 km 29.74 in1007 hPa -- --
20:30 20:30 Partly Cloudy Partly Cloudy 84°F29°C 79°F26°C 84% S 6 mphS 9 kph 30.0 miles48.3 km 29.74 in1007 hPa -- --
20:00 20:00 Partly Cloudy Partly Cloudy 84°F29°C 79°F26°C 84% S 8 mphS 13 kph 30.0 miles48.3 km 29.71 in1006 hPa -- --
19:30 19:30 Partly Cloudy Partly Cloudy 84°F29°C 77°F25°C 79% S 8 mphS 13 kph 30.0 miles48.3 km 29.71 in1006 hPa -- --
19:00 19:00 Partly Cloudy Partly Cloudy 84°F29°C 77°F25°C 79% S 8 mphS 13 kph 30.0 miles48.3 km 29.68 in1005 hPa -- --
18:30 18:30 Partly Cloudy Partly Cloudy 86°F30°C 77°F25°C 75% S 8 mphS 13 kph 30.0 miles48.3 km 29.68 in1005 hPa -- --
18:00 18:00 Partly Cloudy Partly Cloudy 86°F30°C 77°F25°C 75% S 8 mphS 13 kph 30.0 miles48.3 km 29.68 in1005 hPa -- --
17:30 17:30 Mostly Sunny Mostly Sunny 86°F30°C 77°F25°C 75% S 9 mphS 15 kph 30.0 miles48.3 km 29.65 in1004 hPa -- --
17:00 17:00 Mostly Sunny Mostly Sunny 88°F31°C 75°F24°C 66% S 9 mphS 15 kph 30.0 miles48.3 km 29.65 in1004 hPa -- --
16:30 16:30 Partly Cloudy Partly Cloudy 88°F31°C 77°F25°C 70% SSW 9 mphSSW 15 kph 30.0 miles48.3 km 29.65 in1004 hPa -- --
16:00 16:00 Partly Cloudy Partly Cloudy 90°F32°C 77°F25°C 67% SW 8 mphSW 13 kph 30.0 miles48.3 km 29.62 in1003 hPa -- --
15:30 15:30 Partly Cloudy Partly Cloudy 90°F32°C 75°F24°C 63% WSW 9 mphWSW 15 kph 30.0 miles48.3 km 29.62 in1003 hPa -- --
15:00 15:00 Partly Cloudy Partly Cloudy 91°F33°C 77°F25°C 63% SSW 6 mphSSW 9 kph 30.0 miles48.3 km 29.65 in1004 hPa -- --
14:30 14:30 Partly Cloudy Partly Cloudy 90°F32°C 79°F26°C 71% S 8 mphS 13 kph 30.0 miles48.3 km 29.65 in1004 hPa -- --
14:00 14:00 Partly Cloudy Partly Cloudy 90°F32°C 77°F25°C 67% SSW 9 mphSSW 15 kph 30.0 miles48.3 km 29.65 in1004 hPa -- --
13:30 13:30 Partly Cloudy Partly Cloudy 90°F32°C 77°F25°C 67% SW 10 mphSW 17 kph 30.0 miles48.3 km 29.68 in1005 hPa -- --
13:00 13:00 Partly Cloudy Partly Cloudy 88°F31°C 77°F25°C 70% SSW 8 mphSSW 13 kph 30.0 miles48.3 km 29.68 in1005 hPa -- --
12:30 12:30 Partly Cloudy Partly Cloudy 88°F31°C 79°F26°C 75% S 9 mphS 15 kph 30.0 miles48.3 km 29.71 in1006 hPa -- --
12:00 12:00 Partly Cloudy Partly Cloudy 86°F30°C 77°F25°C 75% S 8 mphS 13 kph 30.0 miles48.3 km 29.71 in1006 hPa -- --
11:30 11:30 Partly Cloudy Partly Cloudy 86°F30°C 77°F25°C 75% S 8 mphS 13 kph 30.0 miles48.3 km 29.74 in1007 hPa -- --
11:00 11:00 Partly Cloudy Partly Cloudy 88°F31°C 77°F25°C 70% S 9 mphS 15 kph 30.0 miles48.3 km 29.74 in1007 hPa -- --
10:30 10:30 Partly Cloudy With Showers Nearby Partly Cloudy With Showers Nearby 88°F31°C 77°F25°C 70% SW 7 mphSW 11 kph 30.0 miles48.3 km 29.77 in1008 hPa -- --
10:00 10:00 Partly Cloudy With Showers Nearby Partly Cloudy With Showers Nearby 88°F31°C 75°F24°C 66% W 7 mphW 11 kph 30.0 miles48.3 km 29.77 in1008 hPa -- --
09:30 09:30 Partly Cloudy Partly Cloudy 86°F30°C 75°F24°C 70% W 9 mphW 15 kph 30.0 miles48.3 km 29.77 in1008 hPa -- --
09:00 09:00 Mostly Sunny Mostly Sunny 86°F30°C 75°F24°C 70% WSW 8 mphWSW 13 kph 30.0 miles48.3 km 29.8 in1009 hPa -- --
08:30 08:30 Mostly Sunny Mostly Sunny 86°F30°C 77°F25°C 75% SSW 6 mphSSW 9 kph 30.0 miles48.3 km 29.8 in1009 hPa -- --
08:00 08:00 Mostly Sunny Mostly Sunny 86°F30°C 77°F25°C 75% S 6 mphS 9 kph 30.0 miles48.3 km 29.77 in1008 hPa -- --
07:30 07:30 Mostly Sunny Mostly Sunny 82°F28°C 77°F25°C 84% WSW 7 mphWSW 11 kph 30.0 miles48.3 km 29.77 in1008 hPa -- --
07:00 07:00 Mostly Sunny Mostly Sunny 82°F28°C 77°F25°C 84% WSW 6 mphWSW 9 kph 30.0 miles48.3 km 29.77 in1008 hPa -- --
06:30 06:30 Partly Cloudy Partly Cloudy 81°F27°C 77°F25°C 89% CalmCalm 30.0 miles48.3 km 29.77 in1008 hPa -- --
06:00 06:00 Partly Cloudy Partly Cloudy 81°F27°C 77°F25°C 89% SSW 5 mphSSW 7 kph 30.0 miles48.3 km 29.74 in1007 hPa -- --
05:30 05:30 Partly Cloudy Partly Cloudy 81°F27°C 77°F25°C 89% SSW 5 mphSSW 7 kph 30.0 miles48.3 km 29.74 in1007 hPa -- --
05:00 05:00 Partly Cloudy Partly Cloudy 79°F26°C 77°F25°C 94% SW 3 mphSW 6 kph 30.0 miles48.3 km 29.74 in1007 hPa -- --
04:30 04:30 Mostly Clear Mostly Clear 79°F26°C 77°F25°C 94% WSW 7 mphWSW 11 kph 30.0 miles48.3 km 29.74 in1007 hPa -- --
04:00 04:00 Partly Cloudy Partly Cloudy 79°F26°C 77°F25°C 94% W 5 mphW 7 kph 30.0 miles48.3 km 29.74 in1007 hPa -- --
03:30 03:30 Partly Cloudy Partly Cloudy 79°F26°C 77°F25°C 94% SW 5 mphSW 7 kph 30.0 miles48.3 km 29.74 in1007 hPa -- --
03:00 03:00 Partly Cloudy Partly Cloudy 79°F26°C 77°F25°C 94% CalmCalm 30.0 miles48.3 km 29.71 in1006 hPa -- --
02:30 02:30 Partly Cloudy Partly Cloudy 79°F26°C 77°F25°C 94% CalmCalm 30.0 miles48.3 km 29.74 in1007 hPa -- --
02:00 02:00 Partly Cloudy Partly Cloudy 79°F26°C 77°F25°C 94% CalmCalm 30.0 miles48.3 km 29.74 in1007 hPa -- --
01:30 01:30 Partly Cloudy Partly Cloudy 79°F26°C 77°F25°C 94% SW 3 mphSW 6 kph 30.0 miles48.3 km 29.74 in1007 hPa -- --
01:00 01:00 Partly Cloudy Partly Cloudy 79°F26°C 77°F25°C 94% NW 3 mphNW 6 kph 30.0 miles48.3 km 29.77 in1008 hPa -- --
00:30 00:30 Partly Cloudy With Light Rain Partly Cloudy With Light Rain 79°F26°C 77°F25°C 94% W 6 mphW 9 kph 30.0 miles48.3 km 29.77 in1008 hPa -- --
00:00 00:00 Mostly Cloudy With Light Rain Mostly Cloudy With Light Rain 79°F26°C 77°F25°C 94% WNW 3 mphWNW 6 kph 30.0 miles48.3 km 29.77 in1008 hPa -- --
23:30 23:30 Partly Cloudy With Light Rain Partly Cloudy With Light Rain 79°F26°C 77°F25°C 94% WNW 5 mphWNW 7 kph 30.0 miles48.3 km 29.77 in1008 hPa -- --
23:00 23:00 Partly Cloudy Partly Cloudy 79°F26°C 77°F25°C 94% WNW 6 mphWNW 9 kph 30.0 miles48.3 km 29.77 in1008 hPa -- --